Location: Bazugues
(43.4465°N, 0.3432°E)
Time: 06:45:38
(UTC+00:00)

SL-16 R/B - Pass Details

Date: 12 January 2026
Orbit: 842 x 846 km, 71.0° (Epoch: 10 February)

Event Time Altitude Azimuth Distance (km) Brightness Sun altitude
Rises 17:45:09 0° 226° (SW) 3,391 6.7 -10.8°
Reaches altitude 10° 17:47:44 10° 233° (SW) 2,459 5.9 -11.3°
Maximum altitude 17:53:01 40° 303° (WNW) 1,230 3.4 -12.2°
Drops below altitude 10° 17:58:19 10° 12° (NNE) 2,470 4.3 -13.1°
Enters shadow 18:00:33 - 19° (NNE) 3,263 4.9 -13.5°
